This demonstration page uses our WeatherBlox Daily Observations layout. Learn more.

Left ArrowRight Arrow

Hourly Observations for March 27, 2022

Temp ( °F °C ) Dew Point ( °F °C ) Humidity (%) Winds ( mph kmh ) Pressure ( in mb ) Visibility ( mi km ) Precip ( " mm )
12:15 am 00:15 Clear 37 3 18 -8 45 45 E 10 17 30.21 1023 10 16 0.00 0.00
12:35 am 00:35 Clear 37 3 18 -8 45 45 E 12 19 30.22 1023 10 16 0.00 0.00
12:55 am 00:55 Clear 37 3 18 -8 45 45 E 13 20 30.22 1023 10 16 0.00 0.00
1:15 am 01:15 Clear 37 3 18 -8 45 45 E 10 17 30.22 1023 10 16 0.00 0.00
1:35 am 01:35 Clear 36 2 18 -8 48 48 E 13 20 30.23 1024 10 16 0.00 0.00
1:55 am 01:55 Clear 36 2 18 -8 48 48 E 12 19 30.23 1024 10 16 0.00 0.00
2:15 am 02:15 Clear 36 2 16 -9 44 44 E 15 24 30.24 1024 10 16 0.00 0.00
2:35 am 02:35 Clear 36 2 18 -8 48 48 E 12 19 30.24 1024 10 16 0.00 0.00
2:55 am 02:55 Clear 34 1 18 -8 51 51 E 12 19 30.25 1024 10 16 0.00 0.00
3:15 am 03:15 Clear 34 1 16 -9 48 48 E 10 17 30.25 1024 10 16 0.00 0.00
3:35 am 03:35 Clear 34 1 18 -8 51 51 E 9 15 30.25 1024 10 16 0.00 0.00
3:55 am 03:55 Clear 34 1 18 -8 51 51 E 10 17 30.25 1024 10 16 0.00 0.00
4:15 am 04:15 Clear 34 1 18 -8 51 51 E 9 15 30.24 1024 10 16 0.00 0.00
4:35 am 04:35 Clear 34 1 18 -8 51 51 E 12 19 30.24 1024 10 16 0.00 0.00
4:55 am 04:55 Clear 34 1 18 -8 51 51 E 10 17 30.25 1024 10 16 0.00 0.00
5:15 am 05:15 Clear 32 0 16 -9 51 51 E 9 15 30.26 1025 10 16 0.00 0.00
5:35 am 05:35 Clear 32 0 16 -9 51 51 ESE 8 13 30.27 1025 10 16 0.00 0.00
5:55 am 05:55 Clear 32 0 16 -9 51 51 E 8 13 30.27 1025 10 16 0.00 0.00
6:15 am 06:15 Clear 30 -1 16 -9 55 55 E 7 11 30.29 1026 10 16 0.00 0.00
6:35 am 06:35 Clear 30 -1 18 -8 59 59 E 7 11 30.30 1026 10 16 0.00 0.00
6:55 am 06:55 Clear 30 -1 18 -8 59 59 E 7 11 30.30 1026 10 16 0.00 0.00
7:15 am 07:15 Clear 28 -2 18 -8 64 64 E 6 9 30.32 1027 10 16 0.00 0.00
7:35 am 07:35 Sunny 28 -2 18 -8 64 64 E 5 7 30.33 1027 10 16 0.00 0.00
7:55 am 07:55 Sunny 30 -1 18 -8 59 59 E 7 11 30.32 1027 10 16 0.00 0.00
8:15 am 08:15 Sunny 30 -1 18 -8 59 59 E 7 11 30.32 1027 10 16 0.00 0.00
8:35 am 08:35 Sunny 32 0 18 -8 55 55 E 9 15 30.32 1027 10 16 0.00 0.00
8:55 am 08:55 Sunny 32 0 18 -8 55 55 E 14 22 30.32 1027 10 16 0.00 0.00
9:15 am 09:15 Sunny 34 1 18 -8 51 51 ESE 15 24 30.31 1026 10 16 0.00 0.00
9:35 am 09:35 Sunny 34 1 16 -9 48 48 ESE 14 22 30.31 1026 10 16 0.00 0.00
9:55 am 09:55 Sunny 36 2 16 -9 44 44 ESE 14 22 30.30 1026 10 16 0.00 0.00
10:15 am 10:15 Sunny 36 2 14 -10 41 41 ESE 13 20 30.30 1026 10 16 0.00 0.00
10:35 am 10:35 Sunny 37 3 14 -10 38 38 ESE 12 19 30.28 1025 10 16 0.00 0.00
10:55 am 10:55 Sunny 37 3 14 -10 38 38 SE 14 22 30.29 1026 10 16 0.00 0.00
11:15 am 11:15 Sunny 41 5 14 -10 33 33 E 13 20 30.28 1025 10 16 0.00 0.00
11:35 am 11:35 Sunny 41 5 14 -10 33 33 ESE 12 19 30.28 1025 10 16 0.00 0.00
11:55 am 11:55 Sunny 43 6 14 -10 31 31 ESE 10 17 30.26 1025 10 16 0.00 0.00
12:15 pm 12:15 Sunny 45 7 18 -8 34 34 ESE 12 19 30.25 1024 10 16 0.00 0.00
12:35 pm 12:35 Sunny 45 7 18 -8 34 34 SSE 9 15 30.24 1024 10 16 0.00 0.00
12:55 pm 12:55 Sunny 45 7 18 -8 34 34 ESE 8 13 30.24 1024 10 16 0.00 0.00
1:15 pm 13:15 Sunny 48 9 19 -7 32 32 ESE 8 13 30.20 1023 10 16 0.00 0.00
1:35 pm 13:35 Sunny 48 9 19 -7 32 32 SE 13 20 30.19 1022 10 16 0.00 0.00
1:55 pm 13:55 Sunny 50 10 18 -8 28 28 SE 13 20 30.16 1021 10 16 0.00 0.00
2:15 pm 14:15 Sunny 50 10 18 -8 28 28 SE 10 17 30.15 1021 10 16 0.00 0.00
2:35 pm 14:35 Sunny 52 11 19 -7 28 28 SE 12 19 30.12 1020 10 16 0.00 0.00
2:55 pm 14:55 Sunny 52 11 19 -7 28 28 SSE 12 19 30.11 1020 10 16 0.00 0.00
3:15 pm 15:15 Sunny 52 11 21 -6 30 30 SSE 13 20 30.11 1020 10 16 0.00 0.00
3:35 pm 15:35 Sunny 54 12 21 -6 28 28 SE 14 22 30.08 1019 10 16 0.00 0.00
3:55 pm 15:55 Sunny 54 12 21 -6 28 28 SE 12 19 30.08 1019 10 16 0.00 0.00
4:15 pm 16:15 Sunny 54 12 21 -6 28 28 SSE 12 19 30.07 1018 10 16 0.00 0.00
4:35 pm 16:35 Sunny 52 11 21 -6 30 30 SSE 14 22 30.08 1019 10 16 0.00 0.00
4:55 pm 16:55 Sunny 54 12 21 -6 28 28 SSE 12 19 30.06 1018 10 16 0.00 0.00
5:15 pm 17:15 Sunny 54 12 21 -6 28 28 SSE 14 22 30.06 1018 10 16 0.00 0.00
5:35 pm 17:35 Sunny 54 12 21 -6 28 28 SE 13 20 30.06 1018 10 16 0.00 0.00
5:55 pm 17:55 Sunny 52 11 21 -6 30 30 SE 10 17 30.07 1018 10 16 0.00 0.00
6:15 pm 18:15 Sunny 50 10 21 -6 32 32 SSE 12 19 30.08 1019 10 16 0.00 0.00
6:35 pm 18:35 Sunny 50 10 21 -6 32 32 SSE 12 19 30.08 1019 10 16 0.00 0.00
6:55 pm 18:55 Sunny 48 9 21 -6 34 34 SE 9 15 30.09 1019 10 16 0.00 0.00
7:15 pm 19:15 Sunny 48 9 21 -6 34 34 SE 10 17 30.09 1019 10 16 0.00 0.00
7:35 pm 19:35 Sunny 48 9 21 -6 34 34 SE 10 17 30.09 1019 10 16 0.00 0.00
7:55 pm 19:55 Sunny 45 7 21 -6 39 39 ESE 8 13 30.11 1020 10 16 0.00 0.00
8:15 pm 20:15 Clear 43 6 19 -7 39 39 ESE 8 13 30.12 1020 10 16 0.00 0.00
8:35 pm 20:35 Clear 41 5 19 -7 42 42 ESE 8 13 30.13 1020 10 16 0.00 0.00
8:55 pm 20:55 Clear 41 5 19 -7 42 42 ESE 8 13 30.13 1020 10 16 0.00 0.00
9:15 pm 21:15 Clear 39 4 19 -7 45 45 ESE 7 11 30.14 1021 10 16 0.00 0.00
9:35 pm 21:35 Clear 39 4 19 -7 45 45 SE 8 13 30.14 1021 10 16 0.00 0.00
9:55 pm 21:55 Clear 39 4 19 -7 45 45 ESE 7 11 30.15 1021 10 16 0.00 0.00
10:15 pm 22:15 Clear 37 3 19 -7 48 48 ESE 7 11 30.17 1022 10 16 0.00 0.00
10:35 pm 22:35 Clear 37 3 19 -7 48 48 ESE 7 11 30.17 1022 10 16 0.00 0.00
10:55 pm 22:55 Clear 36 2 19 -7 52 52 ESE 7 11 30.18 1022 10 16 0.00 0.00
11:15 pm 23:15 Clear 36 2 19 -7 52 52 ESE 8 13 30.17 1022 10 16 0.00 0.00
11:35 pm 23:35 Clear 36 2 19 -7 52 52 ESE 9 15 30.16 1021 10 16 0.00 0.00
11:55 pm 23:55 Clear 36 2 19 -7 52 52 SE 9 15 30.16 1021 10 16 0.00 0.00

Powered by AerisWeather